Flag for Canada Weather past 2 weeks in Yellowknife, Northwest Territories, Canada

Now
12 °F

Light snow. Ice fog.


Feels Like: 3 °F
Forecast: 8 / 13 °F
Wind: 6 mph from Northeast

Location: Yellowknife

Current Time: Dec 21, 2014 at 3:01:15 AM

Latest Report: Dec 21, 2014 at 2:00 AM


Visibility: 2 mi

Pressure: 29.60 "Hg

Humidity: 92%

Dew point: 10 °F

Location of YellowknifeLocation

Historic Weather in Yellowknife — Graph

°F

Yellowknife temperature yesterday

Maximum temperature yesterday: 14 °F (at 5:00 AM)
Minimum temperature yesterday: 12 °F (at 12:00 AM)
Average temperature yesterday: 14 °F

Past Weeks' High & Low Weather Summary

 TemperatureHumidityPressure
High18 °F (Dec 9, 2:00 AM)93% (Dec 9, 2:00 AM)30.54 "Hg (Dec 9, 2:00 AM)
Low-31 °F (Dec 6, 2:00 AM)65% (Dec 7, 5:00 AM)29.34 "Hg (Dec 9, 3:00 PM)
Average2 °F84%29.89 "Hg
* Reported Dec 6 2:00 AM — Dec 21 2:00 AM, Yellowknife, Weather by CustomWeather, © 2014

Note: Actual official high and low records may vary slightly from our data, if they occured in-between our weather recording intervals... More about our weather records

Advertising

Yellowknife weather history for previous 24 hours

 ConditionsComfort  
Time TempWeatherWind HumidityBarometerVisibility
2:00 AM
Dec 21
12 °FLight snow. Ice fog.6 mph92%29.60 "Hg2 mi
1:00 AM14 °FLight snow. Low clouds.6 mph85%29.59 "Hg8 mi
12:00 AM14 °FLight snow. Mostly cloudy.3 mph92%29.59 "Hg10 mi
11:00 PM
Dec 20
14 °FLight snow. Low clouds.5 mph85%29.58 "Hg10 mi
10:00 PM14 °FOvercast.2 mph92%29.58 "Hg10 mi
9:00 PM14 °FOvercast.No wind92%29.57 "Hg10 mi
8:00 PM14 °FOvercast.3 mph92%29.57 "Hg15 mi
7:00 PM14 °FPassing clouds.2 mph92%29.57 "Hg15 mi
6:00 PM14 °FPassing clouds.No wind92%29.57 "Hg15 mi
5:00 PM14 °FPassing clouds.No wind92%29.55 "Hg15 mi
4:00 PM14 °FPassing clouds.No wind85%29.55 "Hg15 mi
3:00 PM14 °FPartly sunny.2 mph92%29.54 "Hg15 mi
2:00 PM14 °FPartly sunny.No wind92%29.54 "Hg15 mi
1:00 PM14 °FLight snow. Mostly cloudy.2 mph92%29.53 "Hg6 mi
12:00 PM14 °FLight snow. Mostly cloudy.3 mph92%29.52 "Hg3 mi
11:49 AM14 °FLight snow. Mostly cloudy.5 mph92%29.52 "Hg2 mi
11:00 AM14 °FLight snow. More clouds than sun.7 mph92%29.52 "Hg2 mi
10:00 AM14 °FLight snow. Overcast.5 mph92%29.53 "Hg3 mi
9:00 AM14 °FLight snow. Mostly cloudy.7 mph92%29.53 "Hg4 mi
8:00 AM14 °FLight snow. Mostly cloudy.7 mph92%29.54 "Hg2 mi
7:00 AM14 °FLight snow. Mostly cloudy.12 mph85%29.54 "Hg1 mi
6:00 AM14 °FLight snow. Mostly cloudy.10 mph85%29.56 "Hg1 mi
5:00 AM14 °FLight snow. Mostly cloudy.9 mph85%29.58 "Hg1 mi
4:00 AM12 °FLight snow. Mostly cloudy.8 mph92%29.60 "Hg3 mi
3:00 AM12 °FMostly cloudy.8 mph92%29.60 "Hg15 mi
Weather by CustomWeather, © 2014

See weather overviewHow to use our weather pages